owner,sensor,date,latitude,longitude,vertical_datum,direction_of_sea_water_velocity,sea_water_speed,upward_sea_water_velocity,qcFlag 
TABS,ioos:station:wmo:42051:1,2017-11-01T00:00:00Z,29.6350,-93.6417,2.0,347.661152,2.620534297,-99999.0,'11133222,11111222,99999999' 
TABS,ioos:station:wmo:42051:1,2017-11-01T00:30:00Z,29.6350,-93.6417,2.0,305.4926987,4.409274317,-99999.0,'11133222,11111222,99999999' 
TABS,ioos:station:wmo:42051:1,2017-11-01T01:00:00Z,29.6350,-93.6417,2.0,55.84038533,0.338378486,-99999.0,'11133222,11111222,99999999' 
TABS,ioos:station:wmo:42051:1,2017-11-01T01:30:00Z,29.6350,-93.6417,2.0,301.43584,4.582597517,-99999.0,'11133222,11111222,99999999' 
TABS,ioos:station:wmo:42051:1,2017-11-01T02:00:00Z,29.6350,-93.6417,2.0,314.7674078,3.478994107,-99999.0,'11133222,11111222,99999999' 
TABS,ioos:station:wmo:42051:1,2017-11-01T02:30:00Z,29.6350,-93.6417,2.0,285.4726391,5.322903343,-99999.0,'11133222,11111222,99999999' 
TABS,ioos:station:wmo:42051:1,2017-11-01T03:00:00Z,29.6350,-93.6417,2.0,298.0728422,6.97,-99999.0,'11133222,11111222,99999999' 
TABS,ioos:station:wmo:42051:1,2017-11-01T03:30:00Z,29.6350,-93.6417,2.0,297.4944471,4.137269631,-99999.0,'11133222,11111222,99999999' 
TABS,ioos:station:wmo:42051:1,2017-11-01T04:00:00Z,29.6350,-93.6417,2.0,280.2351997,7.31641989,-99999.0,'11133222,11111222,99999999' 
TABS,ioos:station:wmo:42051:1,2017-11-01T04:30:00Z,29.6350,-93.6417,2.0,263.1766626,9.174976839,-99999.0,'11133222,11111222,99999999' 
TABS,ioos:station:wmo:42051:1,2017-11-01T05:00:00Z,29.6350,-93.6417,2.0,251.9238401,11.6026247,-99999.0,'11111222,11111222,99999999' 
TABS,ioos:station:wmo:42051:1,2017-11-01T05:30:00Z,29.6350,-93.6417,2.0,258.6769209,8.81149817,-99999.0,'11133222,11111222,99999999' 
TABS,ioos:station:wmo:42051:1,2017-11-01T06:00:00Z,29.6350,-93.6417,2.0,259.1066081,11.58880926,-99999.0,'11111222,11111222,99999999' 
TABS,ioos:station:wmo:42051:1,2017-11-01T06:30:00Z,29.6350,-93.6417,2.0,254.2348346,13.50810497,-99999.0,'11111222,11111222,99999999' 
TABS,ioos:station:wmo:42051:1,2017-11-01T07:00:00Z,29.6350,-93.6417,2.0,243.7968113,12.0258139,-99999.0,'11111222,11111222,99999999' 
TABS,ioos:station:wmo:42051:1,2017-11-01T07:30:00Z,29.6350,-93.6417,2.0,241.3264996,12.40068143,-99999.0,'11111222,11111222,99999999' 
TABS,ioos:station:wmo:42051:1,2017-11-01T08:00:00Z,29.6350,-93.6417,2.0,251.9603943,12.82017941,-99999.0,'11111222,11111222,99999999' 
TABS,ioos:station:wmo:42051:1,2017-11-01T08:30:00Z,29.6350,-93.6417,2.0,249.3482164,7.031841864,-99999.0,'11133222,11111222,99999999' 
TABS,ioos:station:wmo:42051:1,2017-11-01T09:00:00Z,29.6350,-93.6417,2.0,280.9544579,13.26162886,-99999.0,'11111222,11111222,99999999' 
TABS,ioos:station:wmo:42051:1,2017-11-01T09:30:00Z,29.6350,-93.6417,2.0,273.7030824,14.71070699,-99999.0,'11111222,11111222,99999999' 
TABS,ioos:station:wmo:42051:1,2017-11-01T10:00:00Z,29.6350,-93.6417,2.0,286.5456869,16.39900302,-99999.0,'11111222,11111222,99999999' 
TABS,ioos:station:wmo:42051:1,2017-11-01T10:30:00Z,29.6350,-93.6417,2.0,292.1283314,14.33591295,-99999.0,'11111222,11111222,99999999' 
TABS,ioos:station:wmo:42051:1,2017-11-01T11:00:00Z,29.6350,-93.6417,2.0,295.1793591,15.16050461,-99999.0,'11111222,11111222,99999999' 
TABS,ioos:station:wmo:42051:1,2017-11-01T11:30:00Z,29.6350,-93.6417,2.0,300.8748596,11.01022252,-99999.0,'11111222,11111222,99999999' 
TABS,ioos:station:wmo:42051:1,2017-11-01T12:00:00Z,29.6350,-93.6417,2.0,285.8720227,11.73746991,-99999.0,'11111222,11111222,99999999' 
TABS,ioos:station:wmo:42051:1,2017-11-01T12:30:00Z,29.6350,-93.6417,2.0,291.4661321,12.67949526,-99999.0,'11111222,11111222,99999999' 
TABS,ioos:station:wmo:42051:1,2017-11-01T13:00:00Z,29.6350,-93.6417,2.0,282.1194511,11.52689464,-99999.0,'11111222,11111222,99999999' 
TABS,ioos:station:wmo:42051:1,2017-11-01T13:30:00Z,29.6350,-93.6417,2.0,281.1144079,10.32361371,-99999.0,'11111222,11111222,99999999' 
TABS,ioos:station:wmo:42051:1,2017-11-01T14:00:00Z,29.6350,-93.6417,2.0,268.73078,9.032214568,-99999.0,'11133222,11111222,99999999' 
TABS,ioos:station:wmo:42051:1,2017-11-01T14:30:00Z,29.6350,-93.6417,2.0,279.6891848,7.070855677,-99999.0,'11133222,11111222,99999999' 
TABS,ioos:station:wmo:42051:1,2017-11-01T15:00:00Z,29.6350,-93.6417,2.0,265.0166523,5.641320767,-99999.0,'11133222,11111222,99999999' 
TABS,ioos:station:wmo:42051:1,2017-11-01T15:30:00Z,29.6350,-93.6417,2.0,277.5950465,7.717700435,-99999.0,'11133222,11111222,99999999' 
TABS,ioos:station:wmo:42051:1,2017-11-01T16:00:00Z,29.6350,-93.6417,2.0,269.5056633,9.280344821,-99999.0,'11133222,11111222,99999999' 
TABS,ioos:station:wmo:42051:1,2017-11-01T16:30:00Z,29.6350,-93.6417,2.0,271.6627059,8.273481734,-99999.0,'11133222,11111222,99999999' 
TABS,ioos:station:wmo:42051:1,2017-11-01T17:00:00Z,29.6350,-93.6417,2.0,274.4798709,8.706595201,-99999.0,'11133222,11111222,99999999' 
TABS,ioos:station:wmo:42051:1,2017-11-01T17:30:00Z,29.6350,-93.6417,2.0,269.8854445,10.04001992,-99999.0,'11111222,11111222,99999999' 
TABS,ioos:station:wmo:42051:1,2017-11-01T18:00:00Z,29.6350,-93.6417,2.0,270.2742986,10.4601195,-99999.0,'11111222,11111222,99999999' 
TABS,ioos:station:wmo:42051:1,2017-11-01T18:30:00Z,29.6350,-93.6417,2.0,275.0183888,8.231549064,-99999.0,'11133222,11111222,99999999' 
TABS,ioos:station:wmo:42051:1,2017-11-01T19:00:00Z,29.6350,-93.6417,2.0,276.3323881,7.707016284,-99999.0,'11133222,11111222,99999999' 
TABS,ioos:station:wmo:42051:1,2017-11-01T19:30:00Z,29.6350,-93.6417,2.0,245.9264895,4.731521954,-99999.0,'11133222,11111222,99999999' 
TABS,ioos:station:wmo:42051:1,2017-11-01T20:00:00Z,29.6350,-93.6417,2.0,279.462721,5.656969153,-99999.0,'11133222,11111222,99999999' 
TABS,ioos:station:wmo:42051:1,2017-11-01T20:30:00Z,29.6350,-93.6417,2.0,256.0581241,4.399602255,-99999.0,'11133222,11111222,99999999' 
TABS,ioos:station:wmo:42051:1,2017-11-01T21:00:00Z,29.6350,-93.6417,2.0,261.1949485,3.723882383,-99999.0,'11133222,11111222,99999999' 
TABS,ioos:station:wmo:42051:1,2017-11-01T21:30:00Z,29.6350,-93.6417,2.0,244.5950041,4.195724014,-99999.0,'11133222,11111222,99999999' 
TABS,ioos:station:wmo:42051:1,2017-11-01T22:00:00Z,29.6350,-93.6417,2.0,234.1939607,3.230557227,-99999.0,'11133222,11111222,99999999' 
TABS,ioos:station:wmo:42051:1,2017-11-01T22:30:00Z,29.6350,-93.6417,2.0,230.0445435,4.905109581,-99999.0,'11133222,11111222,99999999' 
TABS,ioos:station:wmo:42051:1,2017-11-01T23:00:00Z,29.6350,-93.6417,2.0,230.3607017,4.843655644,-99999.0,'11133222,11111222,99999999' 
TABS,ioos:station:wmo:42051:1,2017-11-01T23:30:00Z,29.6350,-93.6417,2.0,255.2869112,4.72492328,-99999.0,'11133222,11111222,99999999' 
TABS,ioos:station:wmo:42051:1,2017-11-02T00:00:00Z,29.6350,-93.6417,2.0,284.9902482,3.788931248,-99999.0,'11133222,11111222,99999999' 
TABS,ioos:station:wmo:42051:1,2017-11-02T00:30:00Z,29.6350,-93.6417,2.0,217.0543505,4.962025796,-99999.0,'11133222,11111222,99999999' 
TABS,ioos:station:wmo:42051:1,2017-11-02T01:00:00Z,29.6350,-93.6417,2.0,262.4227831,8.494162702,-99999.0,'11133222,11111222,99999999' 
TABS,ioos:station:wmo:42051:1,2017-11-02T01:30:00Z,29.6350,-93.6417,2.0,253.1094209,5.74794746,-99999.0,'11133222,11111222,99999999' 
TABS,ioos:station:wmo:42051:1,2017-11-02T02:00:00Z,29.6350,-93.6417,2.0,235.8210347,7.155892677,-99999.0,'11133222,11111222,99999999' 
TABS,ioos:station:wmo:42051:1,2017-11-02T02:30:00Z,29.6350,-93.6417,2.0,253.9625875,9.447671671,-99999.0,'11133222,11111222,99999999' 
TABS,ioos:station:wmo:42051:1,2017-11-02T03:00:00Z,29.6350,-93.6417,2.0,260.7006198,12.6867214,-99999.0,'11111222,11111222,99999999' 
TABS,ioos:station:wmo:42051:1,2017-11-02T03:30:00Z,29.6350,-93.6417,2.0,267.9602397,13.48854329,-99999.0,'11111222,11111222,99999999' 
TABS,ioos:station:wmo:42051:1,2017-11-02T04:00:00Z,29.6350,-93.6417,2.0,261.1540066,16.64800589,-99999.0,'11111222,11111222,99999999' 
TABS,ioos:station:wmo:42051:1,2017-11-02T04:30:00Z,29.6350,-93.6417,2.0,259.352021,17.64378644,-99999.0,'11111222,11111222,99999999' 
TABS,ioos:station:wmo:42051:1,2017-11-02T05:00:00Z,29.6350,-93.6417,2.0,268.0627832,18.64064913,-99999.0,'11111222,11111222,99999999' 
TABS,ioos:station:wmo:42051:1,2017-11-02T05:30:00Z,29.6350,-93.6417,2.0,264.6261939,16.23132773,-99999.0,'11111222,11111222,99999999' 
TABS,ioos:station:wmo:42051:1,2017-11-02T06:00:00Z,29.6350,-93.6417,2.0,253.7913552,16.76640689,-99999.0,'11111222,11111222,99999999' 
TABS,ioos:station:wmo:42051:1,2017-11-02T06:30:00Z,29.6350,-93.6417,2.0,251.798366,17.83223205,-99999.0,'11111222,11111222,99999999' 
TABS,ioos:station:wmo:42051:1,2017-11-02T07:00:00Z,29.6350,-93.6417,2.0,256.2442272,16.82247306,-99999.0,'11111222,11111222,99999999' 
TABS,ioos:station:wmo:42051:1,2017-11-02T07:30:00Z,29.6350,-93.6417,2.0,260.3100239,17.4083457,-99999.0,'11111222,11111222,99999999' 
TABS,ioos:station:wmo:42051:1,2017-11-02T08:00:00Z,29.6350,-93.6417,2.0,253.2711757,18.79542764,-99999.0,'11111222,11111222,99999999' 
TABS,ioos:station:wmo:42051:1,2017-11-02T08:30:00Z,29.6350,-93.6417,2.0,256.3021056,20.10170391,-99999.0,'11111222,11111222,99999999' 
TABS,ioos:station:wmo:42051:1,2017-11-02T09:00:00Z,29.6350,-93.6417,2.0,249.3468515,21.49112608,-99999.0,'11111222,11111222,99999999' 
TABS,ioos:station:wmo:42051:1,2017-11-02T09:30:00Z,29.6350,-93.6417,2.0,245.486058,21.11306941,-99999.0,'11111222,11111222,99999999' 
TABS,ioos:station:wmo:42051:1,2017-11-02T10:00:00Z,29.6350,-93.6417,2.0,241.2899051,22.10783798,-99999.0,'11111222,11111222,99999999' 
TABS,ioos:station:wmo:42051:1,2017-11-02T10:30:00Z,29.6350,-93.6417,2.0,243.6366457,20.290207,-99999.0,'11111222,11111222,99999999' 
TABS,ioos:station:wmo:42051:1,2017-11-02T11:00:00Z,29.6350,-93.6417,2.0,243.43459,19.02893849,-99999.0,'11111222,11111222,99999999' 
TABS,ioos:station:wmo:42051:1,2017-11-02T11:30:00Z,29.6350,-93.6417,2.0,245.0014731,18.48130407,-99999.0,'11111222,11111222,99999999' 
TABS,ioos:station:wmo:42051:1,2017-11-02T12:00:00Z,29.6350,-93.6417,2.0,244.8543142,19.67449364,-99999.0,'11111222,11111222,99999999' 
TABS,ioos:station:wmo:42051:1,2017-11-02T12:30:00Z,29.6350,-93.6417,2.0,246.2501401,16.38780034,-99999.0,'11111222,11111222,99999999' 
TABS,ioos:station:wmo:42051:1,2017-11-02T13:00:00Z,29.6350,-93.6417,2.0,236.7612358,19.70356313,-99999.0,'11111222,11111222,99999999' 
TABS,ioos:station:wmo:42051:1,2017-11-02T13:30:00Z,29.6350,-93.6417,2.0,238.7714477,19.69339229,-99999.0,'11111222,11111222,99999999' 
TABS,ioos:station:wmo:42051:1,2017-11-02T14:00:00Z,29.6350,-93.6417,2.0,238.2982235,19.9812412,-99999.0,'11111222,11111222,99999999' 
TABS,ioos:station:wmo:42051:1,2017-11-02T14:30:00Z,29.6350,-93.6417,2.0,245.5160701,21.54755207,-99999.0,'11111222,11111222,99999999' 
TABS,ioos:station:wmo:42051:1,2017-11-02T15:00:00Z,29.6350,-93.6417,2.0,246.3881145,22.04560954,-99999.0,'11111222,11111222,99999999' 
TABS,ioos:station:wmo:42051:1,2017-11-02T15:30:00Z,29.6350,-93.6417,2.0,242.786549,24.11977197,-99999.0,'11111222,11111222,99999999' 
TABS,ioos:station:wmo:42051:1,2017-11-02T16:00:00Z,29.6350,-93.6417,2.0,247.3931071,26.43076995,-99999.0,'11111222,11111222,99999999' 
TABS,ioos:station:wmo:42051:1,2017-11-02T16:30:00Z,29.6350,-93.6417,2.0,247.3050971,25.97079129,-99999.0,'11111222,11111222,99999999' 
TABS,ioos:station:wmo:42051:1,2017-11-02T17:00:00Z,29.6350,-93.6417,2.0,249.2703268,27.09397904,-99999.0,'11111222,11111222,99999999' 
TABS,ioos:station:wmo:42051:1,2017-11-02T17:30:00Z,29.6350,-93.6417,2.0,249.1734972,28.8018055,-99999.0,'11111222,11111222,99999999' 
TABS,ioos:station:wmo:42051:1,2017-11-02T18:00:00Z,29.6350,-93.6417,2.0,246.5758211,28.72744333,-99999.0,'11111222,11111222,99999999' 
TABS,ioos:station:wmo:42051:1,2017-11-02T18:30:00Z,29.6350,-93.6417,2.0,246.3858089,29.53290538,-99999.0,'11111222,11111222,99999999' 
TABS,ioos:station:wmo:42051:1,2017-11-02T19:00:00Z,29.6350,-93.6417,2.0,246.9577477,32.16625716,-99999.0,'11111222,11111222,99999999' 
TABS,ioos:station:wmo:42051:1,2017-11-02T19:30:00Z,29.6350,-93.6417,2.0,244.6591962,33.27134653,-99999.0,'11111222,11111222,99999999' 
TABS,ioos:station:wmo:42051:1,2017-11-02T20:00:00Z,29.6350,-93.6417,2.0,247.7394465,34.55529627,-99999.0,'11111222,11111222,99999999' 
TABS,ioos:station:wmo:42051:1,2017-11-02T20:30:00Z,29.6350,-93.6417,2.0,249.3462216,35.12761022,-99999.0,'11111222,11111222,99999999' 
TABS,ioos:station:wmo:42051:1,2017-11-02T21:00:00Z,29.6350,-93.6417,2.0,244.5410664,36.12817875,-99999.0,'11111222,11111222,99999999' 
TABS,ioos:station:wmo:42051:1,2017-11-02T21:30:00Z,29.6350,-93.6417,2.0,240.9857112,36.94675223,-99999.0,'11111222,11111222,99999999' 
TABS,ioos:station:wmo:42051:1,2017-11-02T22:00:00Z,29.6350,-93.6417,2.0,246.2842815,36.25124136,-99999.0,'11111222,11111222,99999999' 
TABS,ioos:station:wmo:42051:1,2017-11-02T22:30:00Z,29.6350,-93.6417,2.0,240.2300293,31.60033228,-99999.0,'11111222,11111222,99999999' 
TABS,ioos:station:wmo:42051:1,2017-11-02T23:00:00Z,29.6350,-93.6417,2.0,240.0219591,28.99956034,-99999.0,'11111222,11111222,99999999' 
TABS,ioos:station:wmo:42051:1,2017-11-02T23:30:00Z,29.6350,-93.6417,2.0,236.911562,26.92663366,-99999.0,'11111222,11111222,99999999' 
TABS,ioos:station:wmo:42051:1,2017-11-03T00:00:00Z,29.6350,-93.6417,2.0,236.0167702,19.53679605,-99999.0,'11111222,11111222,99999999' 
TABS,ioos:station:wmo:42051:1,2017-11-03T00:30:00Z,29.6350,-93.6417,2.0,287.9260454,7.115405821,-99999.0,'11133222,11111222,99999999' 
TABS,ioos:station:wmo:42051:1,2017-11-03T01:00:00Z,29.6350,-93.6417,2.0,338.2121487,8.001612338,-99999.0,'11133222,11111222,99999999' 
TABS,ioos:station:wmo:42051:1,2017-11-03T01:30:00Z,29.6350,-93.6417,2.0,343.5205532,8.248860527,-99999.0,'11133222,11111222,99999999' 
TABS,ioos:station:wmo:42051:1,2017-11-03T02:00:00Z,29.6350,-93.6417,2.0,341.919092,9.730513861,-99999.0,'11133222,11111222,99999999' 
TABS,ioos:station:wmo:42051:1,2017-11-03T02:30:00Z,29.6350,-93.6417,2.0,342.339255,9.130328581,-99999.0,'11133222,11111222,99999999' 
TABS,ioos:station:wmo:42051:1,2017-11-03T03:00:00Z,29.6350,-93.6417,2.0,337.1191919,11.13626957,-99999.0,'11111222,11111222,99999999' 
TABS,ioos:station:wmo:42051:1,2017-11-03T03:30:00Z,29.6350,-93.6417,2.0,345.6482454,9.682169178,-99999.0,'11133222,11111222,99999999' 
TABS,ioos:station:wmo:42051:1,2017-11-03T04:00:00Z,29.6350,-93.6417,2.0,343.9504737,9.802066109,-99999.0,'11133222,11111222,99999999' 
TABS,ioos:station:wmo:42051:1,2017-11-03T04:30:00Z,29.6350,-93.6417,2.0,349.196291,9.549266988,-99999.0,'11133222,11111222,99999999' 
TABS,ioos:station:wmo:42051:1,2017-11-03T05:00:00Z,29.6350,-93.6417,2.0,343.8784873,10.26362996,-99999.0,'11111222,11111222,99999999' 
TABS,ioos:station:wmo:42051:1,2017-11-03T05:30:00Z,29.6350,-93.6417,2.0,331.0838227,9.265122773,-99999.0,'11133222,11111222,99999999' 
TABS,ioos:station:wmo:42051:1,2017-11-03T06:00:00Z,29.6350,-93.6417,2.0,323.4988547,6.220128616,-99999.0,'11133222,11111222,99999999' 
TABS,ioos:station:wmo:42051:1,2017-11-03T06:30:00Z,29.6350,-93.6417,2.0,317.5520688,9.052872472,-99999.0,'11133222,11111222,99999999' 
TABS,ioos:station:wmo:42051:1,2017-11-03T07:00:00Z,29.6350,-93.6417,2.0,297.1767732,5.86777641,-99999.0,'11133222,11111222,99999999' 
TABS,ioos:station:wmo:42051:1,2017-11-03T07:30:00Z,29.6350,-93.6417,2.0,306.1684277,5.388404216,-99999.0,'11133222,11111222,99999999' 
TABS,ioos:station:wmo:42051:1,2017-11-03T08:00:00Z,29.6350,-93.6417,2.0,277.5266441,4.428148597,-99999.0,'11133222,11111222,99999999' 
TABS,ioos:station:wmo:42051:1,2017-11-03T08:30:00Z,29.6350,-93.6417,2.0,230.9560104,4.429187284,-99999.0,'11133222,11111222,99999999' 
TABS,ioos:station:wmo:42051:1,2017-11-03T09:00:00Z,29.6350,-93.6417,2.0,228.7671589,13.88222244,-99999.0,'11111222,11111222,99999999' 
TABS,ioos:station:wmo:42051:1,2017-11-03T09:30:00Z,29.6350,-93.6417,2.0,222.2713685,19.16310257,-99999.0,'11111222,11111222,99999999' 
TABS,ioos:station:wmo:42051:1,2017-11-03T10:00:00Z,29.6350,-93.6417,2.0,234.0505493,21.53078029,-99999.0,'11111222,11111222,99999999' 
TABS,ioos:station:wmo:42051:1,2017-11-03T10:30:00Z,29.6350,-93.6417,2.0,232.6543765,23.62281313,-99999.0,'11111222,11111222,99999999' 
TABS,ioos:station:wmo:42051:1,2017-11-03T11:00:00Z,29.6350,-93.6417,2.0,238.0614961,21.68227156,-99999.0,'11111222,11111222,99999999' 
TABS,ioos:station:wmo:42051:1,2017-11-03T11:30:00Z,29.6350,-93.6417,2.0,231.4098022,19.19064616,-99999.0,'11111222,11111222,99999999' 
TABS,ioos:station:wmo:42051:1,2017-11-03T12:00:00Z,29.6350,-93.6417,2.0,241.6036543,18.33617463,-99999.0,'11111222,11111222,99999999' 
TABS,ioos:station:wmo:42051:1,2017-11-03T12:30:00Z,29.6350,-93.6417,2.0,268.6213032,26.60769813,-99999.0,'11111222,11111222,99999999' 
TABS,ioos:station:wmo:42051:1,2017-11-03T13:00:00Z,29.6350,-93.6417,2.0,266.0267834,25.69173603,-99999.0,'11111222,11111222,99999999' 
TABS,ioos:station:wmo:42051:1,2017-11-03T13:30:00Z,29.6350,-93.6417,2.0,273.7654833,21.77700163,-99999.0,'11111222,11111222,99999999' 
TABS,ioos:station:wmo:42051:1,2017-11-03T14:00:00Z,29.6350,-93.6417,2.0,276.386793,23.28449484,-99999.0,'11111222,11111222,99999999' 
TABS,ioos:station:wmo:42051:1,2017-11-03T14:30:00Z,29.6350,-93.6417,2.0,275.0039082,24.99524755,-99999.0,'11111222,11111222,99999999' 
TABS,ioos:station:wmo:42051:1,2017-11-03T15:00:00Z,29.6350,-93.6417,2.0,275.3960738,23.71507959,-99999.0,'11111222,11111222,99999999' 
TABS,ioos:station:wmo:42051:1,2017-11-03T15:30:00Z,29.6350,-93.6417,2.0,280.4529175,24.63886767,-99999.0,'11111222,11111222,99999999' 
TABS,ioos:station:wmo:42051:1,2017-11-03T16:00:00Z,29.6350,-93.6417,2.0,284.1711413,24.79448527,-99999.0,'11111222,11111222,99999999' 
TABS,ioos:station:wmo:42051:1,2017-11-03T16:30:00Z,29.6350,-93.6417,2.0,281.461451,23.04960954,-99999.0,'11111222,11111222,99999999' 
TABS,ioos:station:wmo:42051:1,2017-11-03T17:00:00Z,29.6350,-93.6417,2.0,277.6494817,21.56185985,-99999.0,'11111222,11111222,99999999' 
TABS,ioos:station:wmo:42051:1,2017-11-03T17:30:00Z,29.6350,-93.6417,2.0,280.6257692,24.622177,-99999.0,'11111222,11111222,99999999' 
TABS,ioos:station:wmo:42051:1,2017-11-03T18:00:00Z,29.6350,-93.6417,2.0,282.4662786,24.69212425,-99999.0,'11111222,11111222,99999999' 
TABS,ioos:station:wmo:42051:1,2017-11-03T18:30:00Z,29.6350,-93.6417,2.0,278.9804065,24.21682886,-99999.0,'11111222,11111222,99999999' 
TABS,ioos:station:wmo:42051:1,2017-11-03T19:00:00Z,29.6350,-93.6417,2.0,274.9961639,24.80422746,-99999.0,'11111222,11111222,99999999' 
TABS,ioos:station:wmo:42051:1,2017-11-03T19:30:00Z,29.6350,-93.6417,2.0,273.0511269,24.61488371,-99999.0,'11111222,11111222,99999999' 
TABS,ioos:station:wmo:42051:1,2017-11-03T20:00:00Z,29.6350,-93.6417,2.0,269.2603215,23.2519354,-99999.0,'11111222,11111222,99999999' 
TABS,ioos:station:wmo:42051:1,2017-11-03T20:30:00Z,29.6350,-93.6417,2.0,264.43326,23.7118114,-99999.0,'11111222,11111222,99999999' 
TABS,ioos:station:wmo:42051:1,2017-11-03T21:00:00Z,29.6350,-93.6417,2.0,258.9528245,18.78812391,-99999.0,'11111222,11111222,99999999' 
TABS,ioos:station:wmo:42051:1,2017-11-03T21:30:00Z,29.6350,-93.6417,2.0,258.7153144,17.52886191,-99999.0,'11111222,11111222,99999999' 
TABS,ioos:station:wmo:42051:1,2017-11-03T22:00:00Z,29.6350,-93.6417,2.0,268.3009647,14.50637446,-99999.0,'11111222,11111222,99999999' 
TABS,ioos:station:wmo:42051:1,2017-11-03T22:30:00Z,29.6350,-93.6417,2.0,264.7588108,10.07210504,-99999.0,'11111222,11111222,99999999' 
TABS,ioos:station:wmo:42051:1,2017-11-03T23:00:00Z,29.6350,-93.6417,2.0,276.6199352,8.154360797,-99999.0,'11133222,11111222,99999999' 
TABS,ioos:station:wmo:42051:1,2017-11-03T23:30:00Z,29.6350,-93.6417,2.0,261.7893869,9.103301599,-99999.0,'11133222,11111222,99999999' 
TABS,ioos:station:wmo:42051:1,2017-11-04T00:00:00Z,29.6350,-93.6417,2.0,267.7275965,9.837733479,-99999.0,'11133222,11111222,99999999' 
TABS,ioos:station:wmo:42051:1,2017-11-04T00:30:00Z,29.6350,-93.6417,2.0,267.8643789,7.515217894,-99999.0,'11133222,11111222,99999999' 
TABS,ioos:station:wmo:42051:1,2017-11-04T01:00:00Z,29.6350,-93.6417,2.0,277.8513911,8.418913232,-99999.0,'11133222,11111222,99999999' 
TABS,ioos:station:wmo:42051:1,2017-11-04T01:30:00Z,29.6350,-93.6417,2.0,255.4359205,4.215447782,-99999.0,'11133222,11111222,99999999' 
TABS,ioos:station:wmo:42051:1,2017-11-04T02:00:00Z,29.6350,-93.6417,2.0,267.5325849,4.414091073,-99999.0,'11133222,11111222,99999999' 
TABS,ioos:station:wmo:42051:1,2017-11-04T02:30:00Z,29.6350,-93.6417,2.0,258.2313177,2.696683148,-99999.0,'11133222,11111222,99999999' 
TABS,ioos:station:wmo:42051:1,2017-11-04T03:00:00Z,29.6350,-93.6417,2.0,220.3763693,3.59673463,-99999.0,'11133222,11111222,99999999' 
TABS,ioos:station:wmo:42051:1,2017-11-04T03:30:00Z,29.6350,-93.6417,2.0,250.3045663,3.738716357,-99999.0,'11133222,11111222,99999999' 
TABS,ioos:station:wmo:42051:1,2017-11-04T04:00:00Z,29.6350,-93.6417,2.0,229.5997692,4.320196755,-99999.0,'11133222,11111222,99999999' 
TABS,ioos:station:wmo:42051:1,2017-11-04T04:30:00Z,29.6350,-93.6417,2.0,244.0904396,5.469780617,-99999.0,'11133222,11111222,99999999' 
TABS,ioos:station:wmo:42051:1,2017-11-04T05:00:00Z,29.6350,-93.6417,2.0,230.5272115,5.946133197,-99999.0,'11133222,11111222,99999999' 
TABS,ioos:station:wmo:42051:1,2017-11-04T05:30:00Z,29.6350,-93.6417,2.0,245.2502705,7.763053523,-99999.0,'11133222,11111222,99999999' 
TABS,ioos:station:wmo:42051:1,2017-11-04T06:00:00Z,29.6350,-93.6417,2.0,228.2711261,12.01918882,-99999.0,'11111222,11111222,99999999' 
TABS,ioos:station:wmo:42051:1,2017-11-04T06:30:00Z,29.6350,-93.6417,2.0,223.9150426,12.32707995,-99999.0,'11111222,11111222,99999999' 
TABS,ioos:station:wmo:42051:1,2017-11-04T07:00:00Z,29.6350,-93.6417,2.0,223.6146629,14.62724171,-99999.0,'11111222,11111222,99999999' 
TABS,ioos:station:wmo:42051:1,2017-11-04T07:30:00Z,29.6350,-93.6417,2.0,228.4489475,15.5137423,-99999.0,'11111222,11111222,99999999' 
TABS,ioos:station:wmo:42051:1,2017-11-04T08:00:00Z,29.6350,-93.6417,2.0,224.0110741,16.39317541,-99999.0,'11111222,11111222,99999999' 
TABS,ioos:station:wmo:42051:1,2017-11-04T08:30:00Z,29.6350,-93.6417,2.0,235.1765868,14.44721773,-99999.0,'11111222,11111222,99999999' 
TABS,ioos:station:wmo:42051:1,2017-11-04T09:00:00Z,29.6350,-93.6417,2.0,228.7518276,15.66771521,-99999.0,'11111222,11111222,99999999' 
TABS,ioos:station:wmo:42051:1,2017-11-04T09:30:00Z,29.6350,-93.6417,2.0,233.0567331,15.69001275,-99999.0,'11111222,11111222,99999999' 
TABS,ioos:station:wmo:42051:1,2017-11-04T10:00:00Z,29.6350,-93.6417,2.0,231.7212002,16.1908925,-99999.0,'11111222,11111222,99999999' 
TABS,ioos:station:wmo:42051:1,2017-11-04T10:30:00Z,29.6350,-93.6417,2.0,223.7129365,15.74416717,-99999.0,'11111222,11111222,99999999' 
TABS,ioos:station:wmo:42051:1,2017-11-04T11:00:00Z,29.6350,-93.6417,2.0,231.844312,17.20633023,-99999.0,'11111222,11111222,99999999' 
TABS,ioos:station:wmo:42051:1,2017-11-04T11:30:00Z,29.6350,-93.6417,2.0,224.4753628,16.99955882,-99999.0,'11111222,11111222,99999999' 
TABS,ioos:station:wmo:42051:1,2017-11-04T12:00:00Z,29.6350,-93.6417,2.0,222.0371717,22.0275305,-99999.0,'11111222,11111222,99999999' 
TABS,ioos:station:wmo:42051:1,2017-11-04T12:30:00Z,29.6350,-93.6417,2.0,224.8436872,18.17978273,-99999.0,'11111222,11111222,99999999' 
TABS,ioos:station:wmo:42051:1,2017-11-04T13:00:00Z,29.6350,-93.6417,2.0,239.4416741,14.77154359,-99999.0,'11111222,11111222,99999999' 
TABS,ioos:station:wmo:42051:1,2017-11-04T13:30:00Z,29.6350,-93.6417,2.0,242.4438357,14.74236413,-99999.0,'11111222,11111222,99999999' 
TABS,ioos:station:wmo:42051:1,2017-11-04T14:00:00Z,29.6350,-93.6417,2.0,246.4536787,14.94425977,-99999.0,'11111222,11111222,99999999' 
TABS,ioos:station:wmo:42051:1,2017-11-04T14:30:00Z,29.6350,-93.6417,2.0,262.4488526,15.52461594,-99999.0,'11111222,11111222,99999999' 
TABS,ioos:station:wmo:42051:1,2017-11-04T15:00:00Z,29.6350,-93.6417,2.0,268.6984074,16.73431504,-99999.0,'11111222,11111222,99999999' 
TABS,ioos:station:wmo:42051:1,2017-11-04T15:30:00Z,29.6350,-93.6417,2.0,274.6605584,15.63167617,-99999.0,'11111222,11111222,99999999' 
TABS,ioos:station:wmo:42051:1,2017-11-04T16:00:00Z,29.6350,-93.6417,2.0,276.7556024,18.44807036,-99999.0,'11111222,11111222,99999999' 